This is the latest recevied weather packets stored in our database for station/object N7WSS. If no packets are shown the sender has not sent any weather packets the latest 10 day(s).
| Time | Temp. | Humidity | Pressure | Rain* | Wind** | Luminosity | Snow |
|---|---|---|---|---|---|---|---|
| 1777443067 | 17.22° C | 25% | 1014.9 hPa | 0 mm | - | - | - |
| 1777442763 | 17.22° C | 25% | 1014.7 hPa | 0 mm | - | - | - |
| 1777442459 | 17.78° C | 25% | 1014.8 hPa | 0 mm | - | - | - |
| 1777442155 | 17.78° C | 25% | 1014.5 hPa | 0 mm | - | - | - |
| 1777441851 | 17.78° C | 24% | 1014.7 hPa | 0 mm | - | - | - |
| 1777441547 | 17.78° C | 24% | 1014.5 hPa | 0 mm | - | - | - |
| 1777441243 | 17.78° C | 23% | 1014.7 hPa | 0 mm | - | - | - |
| 1777440938 | 17.78° C | 24% | 1014.7 hPa | 0 mm | - | - | - |
| 1777440634 | 17.78° C | 23% | 1014.5 hPa | 0 mm | - | - | - |
| 1777440330 | 17.78° C | 24% | 1014.5 hPa | 0 mm | - | - | - |
| 1777440026 | 18.33° C | 23% | 1014.5 hPa | 0 mm | - | - | - |
| 1777439722 | 18.33° C | 23% | 1014.5 hPa | 0 mm | - | - | - |
| 1777439418 | 18.33° C | 23% | 1014.4 hPa | 0 mm | - | - | - |
| 1777439113 | 18.33° C | 23% | 1014.7 hPa | 0 mm | - | - | - |
| 1777438811 | 18.33° C | 23% | 1014.5 hPa | 0 mm | - | - | - |
| 1777438508 | 18.33° C | 24% | 1014.3 hPa | 0 mm | - | - | - |
| 1777438203 | 18.33° C | 24% | 1014.3 hPa | 0 mm | - | - | - |
| 1777437899 | 18.33° C | 23% | 1014.1 hPa | 0 mm | - | - | - |
| 1777437595 | 18.33° C | 23% | 1014.1 hPa | 0 mm | - | - | - |
| 1777437293 | 18.89° C | 22% | 1013.9 hPa | 0 mm | - | - | - |
| 1777436989 | 19.44° C | 22% | 1013.9 hPa | 0 mm | - | - | - |
| 1777436686 | 20° C | 22% | 1013.9 hPa | 0 mm | - | - | - |
| 1777436382 | 20° C | 22% | 1014 hPa | 0 mm | - | - | - |
| 1777436078 | 19.44° C | 21% | 1013.8 hPa | 0 mm | - | - | - |
| 1777435775 | 19.44° C | 21% | 1013.8 hPa | 0 mm | - | - | - |
* Rain latest hour (hover to see other rain measurements)
** Current wind speed in m/s (hover to see current wind gust speed)